| time (UTC) | temp F | wind direction | speed MPH | gust MPH | rain 1hr in | rain 24hr in | rain mn in | humidity % | barometer mb |
| 20260505002904 | 53 | 146 | 0.0 | 3.0 | 0.00 | 0.01 | 0.00 | 84 | 1018.4 |
| 20260505002404 | 53 | 167 | 0.0 | 2.0 | 0.00 | 0.01 | 0.00 | 84 | 1018.4 |
| 20260505001904 | 53 | 81 | 0.0 | 5.0 | 0.00 | 0.01 | 0.00 | 84 | 1018.4 |
| 20260505001405 | 53 | 48 | 2.0 | 5.0 | 0.00 | 0.01 | 0.00 | 84 | 1018.6 |
| 20260505000904 | 53 | 48 | 2.0 | 5.0 | 0.00 | 0.01 | 0.00 | 83 | 1018.6 |
| 20260505000405 | 53 | 48 | 0.0 | 5.0 | 0.00 | 0.01 | 0.00 | 83 | 1018.6 |
| 20260504235405 | 53 | 86 | 1.0 | 5.0 | 0.00 | 0.01 | 0.00 | 83 | 1018.7 |
| 20260504234904 | 54 | 86 | 1.0 | 3.0 | 0.00 | 0.01 | 0.00 | 82 | 1018.7 |
| 20260504234404 | 54 | 92 | 2.0 | 5.0 | 0.00 | 0.01 | 0.00 | 82 | 1018.6 |
| 20260504233905 | 54 | 86 | 1.0 | 5.0 | 0.00 | 0.01 | 0.00 | 82 | 1018.7 |
| 20260504233405 | 54 | 83 | 1.0 | 3.0 | 0.00 | 0.01 | 0.00 | 81 | 1018.7 |
| 20260504232905 | 54 | 159 | 0.0 | 5.0 | 0.00 | 0.01 | 0.00 | 81 | 1018.7 |
| 20260504231905 | 54 | 96 | 1.0 | 5.0 | 0.00 | 0.01 | 0.00 | 80 | 1018.6 |
| 20260504231404 | 54 | 103 | 1.0 | 5.0 | 0.00 | 0.01 | 0.00 | 80 | 1018.7 |
| 20260504230906 | 54 | 124 | 3.0 | 8.0 | 0.00 | 0.01 | 0.00 | 80 | 1018.7 |
| 20260504230405 | 55 | 161 | 3.0 | 8.0 | 0.00 | 0.01 | 0.00 | 79 | 1018.7 |
| 20260504225405 | 55 | 139 | 2.0 | 9.0 | 0.00 | 0.01 | 0.01 | 79 | 1018.7 |
| 20260504224404 | 55 | 209 | 0.0 | 5.0 | 0.00 | 0.01 | 0.01 | 79 | 1018.7 |
| 20260504223904 | 55 | 148 | 0.0 | 6.0 | 0.00 | 0.01 | 0.01 | 79 | 1018.7 |
| 20260504223405 | 55 | 138 | 1.0 | 7.0 | 0.00 | 0.01 | 0.01 | 79 | 1018.7 |
| 20260504222904 | 55 | 46 | 3.0 | 9.0 | 0.00 | 0.01 | 0.01 | 78 | 1018.7 |
| 20260504222404 | 55 | 144 | 4.0 | 8.0 | 0.00 | 0.01 | 0.01 | 78 | 1018.8 |
| 20260504221904 | 55 | 138 | 3.0 | 7.0 | 0.00 | 0.01 | 0.01 | 78 | 1018.7 |
| 20260504221406 | 55 | 148 | 1.0 | 5.0 | 0.00 | 0.01 | 0.01 | 78 | 1018.8 |
| 20260504220405 | 55 | 94 | 0.0 | 2.0 | 0.00 | 0.01 | 0.01 | 77 | 1018.7 |
| 20260504215907 | 55 | 100 | 1.0 | 7.0 | 0.00 | 0.01 | 0.01 | 77 | 1018.7 |
| 20260504215406 | 55 | 143 | 0.0 | 0.0 | 0.00 | 0.01 | 0.01 | 77 | 1018.7 |
| 20260504214904 | 55 | 143 | 0.0 | 6.0 | 0.00 | 0.01 | 0.01 | 76 | 1018.8 |
| 20260504213907 | 55 | 126 | 2.0 | 7.0 | 0.00 | 0.01 | 0.01 | 76 | 1018.8 |
| 20260504213405 | 56 | 112 | 1.0 | 5.0 | 0.00 | 0.01 | 0.01 | 76 | 1018.8 |
| 20260504212905 | 56 | 119 | 0.0 | 0.0 | 0.00 | 0.01 | 0.01 | 75 | 1018.8 |
| 20260504212405 | 56 | 119 | 0.0 | 0.0 | 0.00 | 0.01 | 0.01 | 75 | 1018.7 |
| 20260504211905 | 56 | 166 | 1.0 | 6.0 | 0.00 | 0.01 | 0.01 | 74 | 1018.7 |
| 20260504211404 | 56 | 128 | 3.0 | 10.0 | 0.00 | 0.01 | 0.01 | 74 | 1018.6 |
| 20260504210905 | 56 | 116 | 0.0 | 3.0 | 0.00 | 0.01 | 0.01 | 74 | 1018.6 |
| 20260504210405 | 56 | 90 | 0.0 | 3.0 | 0.00 | 0.01 | 0.01 | 73 | 1018.6 |
| 20260504205905 | 57 | 98 | 0.0 | 2.0 | 0.00 | 0.01 | 0.01 | 73 | 1018.5 |
| 20260504205406 | 57 | 108 | 0.0 | 5.0 | 0.00 | 0.01 | 0.01 | 72 | 1018.5 |
| 20260504204905 | 57 | 53 | 0.0 | 5.0 | 0.00 | 0.01 | 0.01 | 72 | 1018.5 |
| 20260504204404 | 57 | 83 | 1.0 | 9.0 | 0.00 | 0.01 | 0.01 | 72 | 1018.4 |
| 20260504203405 | 57 | 99 | 0.0 | 3.0 | 0.00 | 0.01 | 0.01 | 71 | 1018.1 |
| 20260504202904 | 58 | 68 | 0.0 | 3.0 | 0.00 | 0.01 | 0.01 | 70 | 1018.1 |
| 20260504202405 | 58 | 166 | 2.0 | 8.0 | 0.00 | 0.01 | 0.01 | 69 | 1018.0 |
| 20260504200905 | 58 | 312 | 0.0 | 8.0 | 0.00 | 0.01 | 0.01 | 66 | 1017.9 |
| 20260504200406 | 58 | 114 | 4.0 | 9.0 | 0.00 | 0.01 | 0.01 | 66 | 1017.8 |
| 20260504195904 | 59 | 93 | 0.0 | 6.0 | 0.00 | 0.01 | 0.01 | 66 | 1017.8 |
| 20260504195406 | 59 | 36 | 0.0 | 5.0 | 0.00 | 0.01 | 0.01 | 65 | 1017.7 |
| 20260504194904 | 59 | 100 | 2.0 | 7.0 | 0.00 | 0.01 | 0.01 | 64 | 1017.6 |
| 20260504194405 | 59 | 139 | 1.0 | 6.0 | 0.00 | 0.01 | 0.01 | 64 | 1017.6 |
| 20260504193905 | 59 | 155 | 0.0 | 1.0 | 0.00 | 0.01 | 0.01 | 64 | 1017.5 |
| 20260504193404 | 60 | 155 | 0.0 | 6.0 | 0.00 | 0.01 | 0.01 | 64 | 1017.4 |
| 20260504192905 | 60 | 113 | 1.0 | 8.0 | 0.00 | 0.01 | 0.01 | 64 | 1017.5 |
| 20260504192405 | 60 | 80 | 1.0 | 8.0 | 0.00 | 0.01 | 0.01 | 64 | 1017.4 |
| 20260504191906 | 60 | 109 | 2.0 | 6.0 | 0.00 | 0.01 | 0.01 | 63 | 1017.4 |
| 20260504190905 | 61 | 48 | 2.0 | 18.0 | 0.00 | 0.01 | 0.01 | 62 | 1017.2 |
| 20260504190405 | 61 | 102 | 2.0 | 13.0 | 0.00 | 0.01 | 0.01 | 61 | 1017.2 |
| 20260504185905 | 61 | 99 | 4.0 | 13.0 | 0.00 | 0.01 | 0.01 | 60 | 1017.1 |
| 20260504185405 | 61 | 159 | 3.0 | 12.0 | 0.00 | 0.01 | 0.01 | 59 | 1017.1 |
| 20260504184906 | 62 | 114 | 6.0 | 16.0 | 0.00 | 0.01 | 0.01 | 58 | 1017.1 |
| 20260504184405 | 62 | 117 | 3.0 | 10.0 | 0.00 | 0.01 | 0.01 | 58 | 1017.0 |
| 20260504183406 | 62 | 70 | 2.0 | 7.0 | 0.00 | 0.01 | 0.01 | 56 | 1017.0 |
| 20260504182905 | 63 | 129 | 2.0 | 9.0 | 0.00 | 0.01 | 0.01 | 56 | 1016.9 |
| 20260504182405 | 63 | 107 | 2.0 | 8.0 | 0.00 | 0.01 | 0.01 | 55 | 1016.9 |
| 20260504181906 | 63 | 71 | 3.0 | 10.0 | 0.00 | 0.01 | 0.01 | 54 | 1017.0 |
| 20260504181407 | 63 | 68 | 2.0 | 9.0 | 0.00 | 0.01 | 0.01 | 54 | 1017.0 |
| 20260504180905 | 63 | 67 | 4.0 | 12.0 | 0.00 | 0.01 | 0.01 | 53 | 1017.0 |
| 20260504180406 | 64 | 119 | 3.0 | 12.0 | 0.00 | 0.01 | 0.01 | 52 | 1016.9 |
| 20260504175906 | 64 | 148 | 6.0 | 15.0 | 0.00 | 0.01 | 0.01 | 52 | 1016.9 |
| 20260504175406 | 64 | 105 | 3.0 | 8.0 | 0.00 | 0.01 | 0.01 | 53 | 1016.9 |
| 20260504174906 | 64 | 92 | 1.0 | 12.0 | 0.00 | 0.01 | 0.01 | 53 | 1016.9 |
| 20260504174406 | 64 | 69 | 2.0 | 12.0 | 0.00 | 0.01 | 0.01 | 53 | 1016.9 |
| 20260504173906 | 64 | 75 | 2.0 | 10.0 | 0.00 | 0.01 | 0.01 | 52 | 1016.9 |
| 20260504173406 | 64 | 83 | 6.0 | 16.0 | 0.00 | 0.01 | 0.01 | 51 | 1017.0 |
| 20260504172906 | 65 | 111 | 4.0 | 12.0 | 0.00 | 0.01 | 0.01 | 51 | 1017.0 |
| 20260504172406 | 65 | 104 | 5.0 | 14.0 | 0.00 | 0.01 | 0.01 | 50 | 1016.9 |
| 20260504171906 | 65 | 85 | 2.0 | 13.0 | 0.00 | 0.01 | 0.01 | 50 | 1017.0 |
| 20260504171407 | 66 | 94 | 2.0 | 10.0 | 0.00 | 0.01 | 0.01 | 50 | 1017.0 |
| 20260504170907 | 66 | 95 | 5.0 | 12.0 | 0.00 | 0.02 | 0.01 | 49 | 1016.9 |
| 20260504170407 | 66 | 126 | 5.0 | 12.0 | 0.00 | 0.02 | 0.01 | 49 | 1016.8 |
| 20260504160407 | 68 | 116 | 2.0 | 8.0 | 0.00 | 0.09 | 0.01 | 49 | 1016.7 |
| 20260504150906 | 66 | 6 | 0.0 | 13.0 | 0.00 | 0.09 | 0.01 | 52 | 1016.8 |
| 20260504150406 | 66 | 87 | 2.0 | 12.0 | 0.00 | 0.09 | 0.01 | 53 | 1016.8 |
| 20260504140906 | 67 | 118 | 5.0 | 9.0 | 0.00 | 0.09 | 0.01 | 54 | 1017.1 |
| 20260504140405 | 68 | 10 | 2.0 | 8.0 | 0.00 | 0.09 | 0.01 | 53 | 1017.2 |
| 20260504130406 | 66 | 174 | 3.0 | 9.0 | 0.00 | 0.09 | 0.01 | 56 | 1017.3 |
| 20260504110405 | 65 | 96 | 0.0 | 7.0 | 0.00 | 0.09 | 0.01 | 56 | 1017.6 |
| 20260504081905 | 58 | 141 | 1.0 | 9.0 | 0.00 | 0.09 | 0.00 | 84 | 1017.3 |
| 20260504081405 | 58 | 140 | 2.0 | 6.0 | 0.00 | 0.09 | 0.00 | 84 | 1017.2 |
| 20260504080405 | 58 | 135 | 1.0 | 8.0 | 0.00 | 0.09 | 0.00 | 86 | 1017.1 |
| 20260504070404 | 54 | 80 | 0.0 | 0.0 | 0.00 | 0.09 | 0.00 | 93 | 1016.6 |
| 20260504050404 | 52 | 88 | 2.0 | 8.0 | 0.00 | 0.09 | 0.00 | 93 | 1015.8 |
| 20260504045904 | 52 | 118 | 2.0 | 7.0 | 0.00 | 0.09 | 0.00 | 93 | 1015.7 |
| 20260504045404 | 52 | 110 | 3.0 | 6.0 | 0.00 | 0.09 | 0.00 | 93 | 1015.7 |
| 20260504044904 | 52 | 94 | 2.0 | 6.0 | 0.00 | 0.09 | 0.00 | 93 | 1015.7 |
| 20260504044405 | 52 | 111 | 1.0 | 3.0 | 0.00 | 0.09 | 0.00 | 93 | 1015.7 |
| 20260504043905 | 53 | 115 | 1.0 | 3.0 | 0.00 | 0.09 | 0.00 | 93 | 1015.7 |
| 20260504043404 | 53 | 115 | 0.0 | 0.0 | 0.00 | 0.09 | 0.00 | 93 | 1015.8 |
| 20260504042905 | 53 | 115 | 0.0 | 0.0 | 0.00 | 0.09 | 0.00 | 93 | 1015.7 |
| 20260504042407 | 53 | 115 | 0.0 | 0.0 | 0.00 | 0.09 | 0.00 | 92 | 1015.7 |
| 20260504041405 | 53 | 113 | 0.0 | 3.0 | 0.00 | 0.09 | 0.00 | 92 | 1015.7 |
| 20260504040405 | 53 | 137 | 0.0 | 0.0 | 0.00 | 0.09 | 0.00 | 92 | 1015.7 |
| 20260504035904 | 53 | 136 | 1.0 | 3.0 | 0.00 | 0.09 | 0.00 | 92 | 1015.7 |
| 20260504035405 | 53 | 136 | 1.0 | 3.0 | 0.00 | 0.09 | 0.00 | 93 | 1015.8 |
| 20260504034904 | 53 | 135 | 0.0 | 0.0 | 0.00 | 0.09 | 0.00 | 93 | 1015.7 |
| 20260504034405 | 53 | 135 | 1.0 | 3.0 | 0.00 | 0.09 | 0.00 | 93 | 1015.7 |
| 20260504033405 | 53 | 132 | 2.0 | 5.0 | 0.00 | 0.09 | 0.00 | 93 | 1015.7 |
| 20260504032905 | 53 | 148 | 0.0 | 3.0 | 0.00 | 0.09 | 0.00 | 93 | 1015.8 |
| 20260504032405 | 53 | 148 | 1.0 | 6.0 | 0.00 | 0.09 | 0.00 | 93 | 1015.8 |
| 20260504031905 | 53 | 144 | 1.0 | 3.0 | 0.00 | 0.09 | 0.00 | 93 | 1015.8 |
| 20260504031405 | 53 | 141 | 0.0 | 0.0 | 0.00 | 0.09 | 0.00 | 93 | 1015.9 |
| 20260504030905 | 53 | 141 | 0.0 | 0.0 | 0.00 | 0.09 | 0.00 | 93 | 1015.9 |
| 20260504030405 | 53 | 141 | 0.0 | 0.0 | 0.00 | 0.09 | 0.00 | 93 | 1015.9 |
| 20260504025905 | 53 | 141 | 0.0 | 0.0 | 0.00 | 0.09 | 0.00 | 93 | 1015.8 |
| 20260504025405 | 53 | 141 | 0.0 | 0.0 | 0.00 | 0.09 | 0.00 | 93 | 1015.8 |
| 20260504024905 | 53 | 141 | 0.0 | 1.0 | 0.00 | 0.09 | 0.00 | 93 | 1015.8 |
| 20260504024405 | 53 | 141 | 0.0 | 3.0 | 0.00 | 0.09 | 0.00 | 93 | 1015.9 |
| 20260504023904 | 53 | 126 | 1.0 | 6.0 | 0.00 | 0.09 | 0.00 | 93 | 1015.8 |
| 20260504023404 | 53 | 78 | 0.0 | 5.0 | 0.00 | 0.09 | 0.00 | 93 | 1015.8 |
| 20260504022904 | 53 | 78 | 0.0 | 0.0 | 0.00 | 0.09 | 0.00 | 93 | 1015.8 |
| 20260504022404 | 53 | 78 | 0.0 | 0.0 | 0.00 | 0.09 | 0.00 | 93 | 1015.9 |
| 20260504021904 | 53 | 78 | 1.0 | 3.0 | 0.00 | 0.09 | 0.00 | 93 | 1015.8 |
| 20260504021405 | 53 | 78 | 0.0 | 1.0 | 0.00 | 0.09 | 0.00 | 93 | 1015.8 |
| 20260504020905 | 53 | 78 | 0.0 | 0.0 | 0.00 | 0.09 | 0.00 | 93 | 1015.8 |
| 20260504020404 | 53 | 78 | 0.0 | 0.0 | 0.00 | 0.09 | 0.00 | 92 | 1015.9 |
| 20260504015905 | 53 | 78 | 0.0 | 0.0 | 0.00 | 0.09 | 0.00 | 92 | 1015.9 |
| 20260504014404 | 53 | 78 | 0.0 | 1.0 | 0.00 | 0.09 | 0.00 | 92 | 1016.0 |
| 20260504013904 | 53 | 78 | 0.0 | 2.0 | 0.00 | 0.09 | 0.00 | 92 | 1016.0 |
| 20260504013405 | 53 | 78 | 0.0 | 2.0 | 0.00 | 0.09 | 0.00 | 92 | 1016.0 |
| 20260504012905 | 53 | 78 | 0.0 | 0.0 | 0.00 | 0.09 | 0.00 | 92 | 1016.0 |
| 20260504012404 | 53 | 78 | 0.0 | 0.0 | 0.00 | 0.09 | 0.00 | 92 | 1016.1 |
| 20260504011904 | 53 | 78 | 0.0 | 0.0 | 0.00 | 0.09 | 0.00 | 92 | 1016.1 |
| 20260504011405 | 53 | 78 | 0.0 | 0.0 | 0.00 | 0.09 | 0.00 | 92 | 1016.1 |
| 20260504010904 | 53 | 78 | 0.0 | 0.0 | 0.00 | 0.09 | 0.00 | 92 | 1016.0 |
| 20260504010405 | 53 | 78 | 0.0 | 0.0 | 0.00 | 0.09 | 0.00 | 92 | 1016.1 |
| 20260504005905 | 53 | 78 | 0.0 | 3.0 | 0.00 | 0.09 | 0.00 | 92 | 1016.1 |
| 20260504004904 | 54 | 78 | 0.0 | 0.0 | 0.00 | 0.09 | 0.00 | 92 | 1016.1 |
| 20260504004405 | 54 | 78 | 0.0 | 0.0 | 0.00 | 0.09 | 0.00 | 92 | 1016.1 |
| 20260504003905 | 54 | 78 | 0.0 | 3.0 | 0.00 | 0.09 | 0.00 | 92 | 1016.1 |